Location: Invercargill
(46.4000°S, 168.3500°E)
Time: 18:04:50
(UTC+12:00)

Cosmos 2297 - Pass Details

Date: 14 May 2021
Orbit: 837 x 857 km, 71.0° (Epoch: 14 June)

Event Time Altitude Azimuth Distance (km) Brightness Sun altitude
Rises 20:14:33 0° 208° (SSW) 3,465 7.3 -29.1°
Reaches altitude 10° 20:17:02 10° 209° (SSW) 2,524 6.5 -29.5°
Enters shadow 20:22:13 70° 235° (SW) 925 3.9 -30.4°
